EW9202 Weather Reports


Display with metric or nautical units.
time (UTC)temp
F
wind
direction
speed
MPH
gust
MPH
rain 1hr
in
rain 24hr
in
rain mn
in
humidity
%
barometer
mb
20260502181506 72 63 0.0 4.0 0.00 0.00 0.00 32 1016.9
20260502180121 73 77 1.0 6.0 0.00 0.00 0.00 30 1016.9
20260502170110 75 130 0.0 8.0 0.00 0.00 0.00 25 1017.2
20260502163051 76 124 1.0 9.0 0.00 0.00 0.00 26 1017.4
20260502161542 76 67 1.0 8.0 0.00 0.00 0.00 25 1017.7
20260502151554 76 59 0.0 7.0 0.00 0.00 0.00 22 1018.3
20260502123054 74 142 2.0 7.0 0.00 0.00 0.00 25 1020.6
20260502121555 74 110 0.0 8.0 0.00 0.00 0.00 25 1020.8
20260502114526 74 231 0.0 7.0 0.00 0.00 0.00 28 1021.3
20260502113039 73 180 1.0 6.0 0.00 0.00 0.00 28 1021.5
20260502111608 73 152 1.0 7.0 0.00 0.00 0.00 27 1021.6
20260502110003 73 98 2.0 9.0 0.00 0.00 0.00 30 1021.9
20260502104502 72 23 3.0 8.0 0.00 0.00 0.00 30 1022.0
20260502103111 72 340 1.0 4.0 0.00 0.00 0.00 32 1022.2
20260502101610 71 276 3.0 8.0 0.00 0.00 0.00 36 1022.5
20260502100109 71 239 0.0 6.0 0.00 0.00 0.00 37 1022.7
20260502070047 57 182 0.0 4.0 0.00 0.00 0.00 60 1024.3
20260502064537 54 175 1.0 6.0 0.00 0.00 0.00 66 1024.5
20260502063003 51 211 2.0 5.0 0.00 0.00 0.00 70 1024.6
20260502061513 48 236 1.0 4.0 0.00 0.00 0.00 77 1024.5
20260502060020 46 206 3.0 7.0 0.00 0.00 0.00 80 1024.6
20260502054542 45 209 1.0 6.0 0.00 0.00 0.00 81 1024.6
20260502053109 44 217 0.0 4.0 0.00 0.00 0.00 83 1024.6
20260502051537 44 230 1.0 4.0 0.00 0.00 0.00 84 1024.6
20260502050053 43 209 0.0 2.0 0.00 0.00 0.00 84 1024.5
20260502044541 43 198 0.0 3.0 0.00 0.00 0.00 84 1024.4
20260502043005 43 196 0.0 3.0 0.00 0.00 0.00 84 1024.3
20260502041608 43 188 0.0 4.0 0.00 0.00 0.00 84 1024.4
20260502040017 43 189 0.0 4.0 0.00 0.00 0.00 83 1024.4
20260502034542 43 179 0.0 2.0 0.00 0.00 0.00 83 1024.4
20260502033008 44 235 0.0 4.0 0.00 0.00 0.00 82 1024.5
20260502031518 44 201 0.0 6.0 0.00 0.00 0.00 82 1024.4
20260502030009 44 213 1.0 4.0 0.00 0.00 0.00 82 1024.5
20260502024553 44 173 1.0 4.0 0.00 0.00 0.00 82 1024.5
20260502023033 45 217 0.0 3.0 0.00 0.00 0.00 81 1024.5
20260502021600 45 220 0.0 2.0 0.00 0.00 0.00 80 1024.5
20260502020044 45 220 0.0 1.0 0.00 0.00 0.00 79 1024.5
20260502014502 46 220 0.0 5.0 0.00 0.00 0.00 79 1024.6
20260502013048 46 237 0.0 0.0 0.00 0.00 0.00 78 1024.7
20260502011544 46 237 0.0 0.0 0.00 0.00 0.00 77 1024.8
20260502004503 47 237 0.0 3.0 0.00 0.00 0.00 76 1024.9
20260502003054 48 232 0.0 4.0 0.00 0.00 0.00 75 1025.0
20260502001548 48 232 0.0 3.0 0.00 0.00 0.00 74 1025.0
20260502000014 49 232 2.0 5.0 0.00 0.00 0.00 74 1025.0
20260501234532 49 219 0.0 3.0 0.00 0.00 0.00 72 1025.1
20260501233105 50 219 0.0 3.0 0.00 0.00 0.00 71 1025.2
20260501231510 50 221 0.0 4.0 0.00 0.00 0.00 70 1025.1
20260501230110 50 223 0.0 2.0 0.00 0.00 0.00 69 1025.2
20260501224538 51 270 0.0 0.0 0.00 0.00 0.00 68 1025.2
20260501223024 52 269 0.0 0.0 0.00 0.00 0.00 68 1025.3
20260501221538 52 269 0.0 3.0 0.00 0.00 0.00 67 1025.3
20260501220028 53 269 0.0 3.0 0.00 0.00 0.00 66 1025.3
20260501214552 53 273 0.0 1.0 0.00 0.00 0.00 64 1025.2
20260501213047 54 274 1.0 3.0 0.00 0.00 0.00 63 1025.2
20260501211525 54 281 0.0 0.0 0.00 0.00 0.00 63 1025.2
20260501210059 55 282 0.0 1.0 0.00 0.00 0.00 61 1025.2
20260501204507 55 282 0.0 0.0 0.00 0.00 0.00 60 1025.3
20260501203033 56 282 0.0 2.0 0.00 0.00 0.00 60 1025.2
20260501201542 57 284 0.0 0.0 0.00 0.00 0.00 57 1025.2
20260501200056 57 284 0.0 0.0 0.00 0.00 0.00 56 1025.1
20260501194511 58 284 0.0 0.0 0.00 0.00 0.00 53 1025.1
20260501193036 59 284 0.0 0.0 0.00 0.00 0.00 52 1025.1
20260501191556 60 284 0.0 0.0 0.00 0.00 0.00 51 1025.1
20260501190032 62 284 0.0 0.0 0.00 0.00 0.00 48 1025.0
20260501184532 63 285 0.0 0.0 0.00 0.00 0.00 46 1024.9
20260501183112 65 285 0.0 0.0 0.00 0.00 0.00 45 1024.8